^^
Saratoga-Weather Station Historical Data
 
Daily Summary for February 22, 2019 Units:  Metric    English   Both
Daily Weekly Monthly Yearly Custom
  Current: High: Low: Average:
Temperature: 0.5 °C 0.9 °C -2.1 °C -0.6 °C
Dew Point: -4.7 °C -1.2 °C -4.7 °C -3.3 °C
Humidity: 68% 89% 68% 82%
Wind Speed: 14.8km/h 24.1km/h 0.0km/h 8.5km/h
Wind Gust: 11.1km/h 22.5km/h - -
WindSE - - SE
Pressure: 1043.7 hPa 1043.7 hPa 1031.9 hPa -
Precipitation: 0.0 mm      
Historical Graphs
 
 
Tabular Data for February 22, 2019
Time Temperature Dew Point Pressure Wind Wind Speed Wind Gust Humidity Rainfall Rate (Hourly) solar
00:00 0.4 °C -1.2 °C 1031.9 hPa ESE 9.7 km/h 14.5 km/h 89% 0.0 mm 0.00 W/m2
00:05 0.5 °C -1.3 °C 1032.1 hPa SE 11.3 km/h 5.6 km/h 88% 0.0 mm 0.00 W/m2
00:10 0.4 °C -1.3 °C 1032.0 hPa SE 7.4 km/h 5.3 km/h 88% 0.0 mm 0.00 W/m2
00:15 0.5 °C -1.3 °C 1032.1 hPa ESE 8.0 km/h 11.3 km/h 88% 0.0 mm 0.00 W/m2
00:20 0.5 °C -1.3 °C 1032.1 hPa ESE 4.8 km/h 14.5 km/h 88% 0.0 mm 0.00 W/m2
00:25 0.4 °C -1.3 °C 1032.3 hPa ESE 14.8 km/h 12.1 km/h 88% 0.0 mm 0.00 W/m2
00:30 0.4 °C -1.5 °C 1032.5 hPa SSE 16.7 km/h 11.4 km/h 87% 0.0 mm 0.00 W/m2
00:35 0.4 °C -1.5 °C 1032.7 hPa SE 8.0 km/h 19.3 km/h 87% 0.0 mm 0.00 W/m2
00:40 0.4 °C -1.5 °C 1032.8 hPa ESE 18.5 km/h 11.1 km/h 87% 0.0 mm 0.00 W/m2
00:45 0.4 °C -1.5 °C 1032.9 hPa SE 9.7 km/h 19.3 km/h 87% 0.0 mm 0.00 W/m2
00:50 0.3 °C -1.6 °C 1033.0 hPa East 14.8 km/h 8.0 km/h 87% 0.0 mm 0.00 W/m2
00:55 0.3 °C -1.6 °C 1033.1 hPa ESE 12.9 km/h 19.3 km/h 87% 0.0 mm 0.00 W/m2
01:00 0.3 °C -1.8 °C 1033.3 hPa ESE 9.7 km/h 19.3 km/h 86% 0.0 mm 0.00 W/m2
01:05 0.2 °C -1.8 °C 1033.4 hPa ESE 11.3 km/h 20.9 km/h 86% 0.0 mm 0.00 W/m2
01:10 0.2 °C -1.8 °C 1033.5 hPa ESE 9.7 km/h 20.9 km/h 86% 0.0 mm 0.00 W/m2
01:15 0.2 °C -1.9 °C 1033.6 hPa ESE 9.7 km/h 22.5 km/h 86% 0.0 mm 0.00 W/m2
01:20 0.2 °C -1.9 °C 1033.8 hPa ESE 18.5 km/h 13.8 km/h 86% 0.0 mm 0.00 W/m2
01:25 0.2 °C -1.9 °C 1034.0 hPa SE 11.1 km/h 7.7 km/h 86% 0.0 mm 0.00 W/m2
01:30 0.1 °C -1.9 °C 1034.1 hPa SE 8.0 km/h 19.3 km/h 86% 0.0 mm 0.00 W/m2
01:35 0.1 °C -2.1 °C 1034.1 hPa SE 9.7 km/h 19.3 km/h 85% 0.0 mm 0.00 W/m2
01:40 0.1 °C -2.2 °C 1034.3 hPa SE 8.0 km/h 20.9 km/h 85% 0.0 mm 0.00 W/m2
01:45 0.1 °C -2.2 °C 1034.5 hPa ESE 16.7 km/h 10.8 km/h 85% 0.0 mm 0.00 W/m2
01:50 0.0 °C -2.2 °C 1034.5 hPa ESE 18.5 km/h 10.3 km/h 85% 0.0 mm 0.00 W/m2
01:55 0.0 °C -2.2 °C 1034.7 hPa SE 5.6 km/h 4.8 km/h 85% 0.0 mm 0.00 W/m2
02:00 -0.1 °C -2.3 °C 1034.8 hPa ESE 13.0 km/h 7.4 km/h 85% 0.0 mm 0.00 W/m2
02:05 -0.1 °C -2.3 °C 1034.9 hPa ESE 7.4 km/h 5.8 km/h 85% 0.0 mm 0.00 W/m2
02:10 -0.2 °C -2.2 °C 1034.9 hPa ESE 11.1 km/h 5.5 km/h 86% 0.0 mm 0.00 W/m2
02:15 -0.2 °C -2.2 °C 1035.1 hPa SSE 13.0 km/h 4.8 km/h 86% 0.0 mm 0.00 W/m2
02:20 -0.2 °C -2.3 °C 1035.1 hPa SE 4.8 km/h 2.7 km/h 86% 0.0 mm 0.00 W/m2
02:25 -0.2 °C -2.3 °C 1035.3 hPa ESE 5.6 km/h 5.0 km/h 86% 0.0 mm 0.00 W/m2
02:30 -0.3 °C -2.3 °C 1035.4 hPa East 9.3 km/h 6.1 km/h 86% 0.0 mm 0.00 W/m2
02:35 -0.4 °C -2.4 °C 1035.3 hPa East 3.7 km/h 2.3 km/h 86% 0.0 mm 0.00 W/m2
02:40 -0.4 °C -2.5 °C 1035.3 hPa ENE 5.6 km/h 3.1 km/h 86% 0.0 mm 0.00 W/m2
02:45 -0.5 °C -2.6 °C 1035.5 hPa ENE 6.4 km/h 5.0 km/h 86% 0.0 mm 0.00 W/m2
02:50 -0.6 °C -2.6 °C 1035.7 hPa ENE 5.6 km/h 2.9 km/h 86% 0.0 mm 0.00 W/m2
02:55 -0.5 °C -2.6 °C 1035.8 hPa ENE 3.7 km/h 1.9 km/h 86% 0.0 mm 0.00 W/m2
03:00 -0.6 °C -2.7 °C 1035.9 hPa ENE 3.2 km/h 8.0 km/h 86% 0.0 mm 0.00 W/m2
03:05 -0.6 °C -2.7 °C 1036.1 hPa ENE 3.2 km/h 6.4 km/h 86% 0.0 mm 0.00 W/m2
03:10 -0.7 °C -2.7 °C 1036.2 hPa ENE 5.6 km/h 4.2 km/h 86% 0.0 mm 0.00 W/m2
03:15 -0.7 °C -2.8 °C 1036.3 hPa ENE 3.7 km/h 1.4 km/h 86% 0.0 mm 0.00 W/m2
03:20 -0.7 °C -2.8 °C 1036.4 hPa Calm     86% 0.0 mm 0.00 W/m2
03:25 -0.8 °C -2.9 °C 1036.6 hPa Calm     86% 0.0 mm 0.00 W/m2
03:30 -0.9 °C -2.9 °C 1036.8 hPa ENE 1.9 km/h 1.3 km/h 86% 0.0 mm 0.00 W/m2
03:35 -0.9 °C -3.0 °C 1036.9 hPa East 1.9 km/h 0.5 km/h 86% 0.0 mm 0.00 W/m2
03:40 -1.0 °C -3.1 °C 1037.0 hPa East 1.6 km/h 4.8 km/h 86% 0.0 mm 0.00 W/m2
03:45 -1.1 °C -3.1 °C 1037.0 hPa ESE 9.3 km/h 6.0 km/h 86% 0.0 mm 0.00 W/m2
03:50 -1.1 °C -3.1 °C 1037.1 hPa ESE 9.3 km/h 5.5 km/h 86% 0.0 mm 0.00 W/m2
03:55 -1.2 °C -3.4 °C 1037.3 hPa SE 7.4 km/h 5.3 km/h 85% 0.0 mm 0.00 W/m2
04:00 -1.2 °C -3.2 °C 1037.3 hPa SE 1.6 km/h 6.4 km/h 86% 0.0 mm 0.00 W/m2
04:05 -1.3 °C -3.3 °C 1037.5 hPa ESE 5.6 km/h 2.4 km/h 86% 0.0 mm 0.00 W/m2
04:10 -1.3 °C -3.4 °C 1037.6 hPa ESE 3.7 km/h 1.6 km/h 86% 0.0 mm 0.00 W/m2
04:15 -1.4 °C -3.3 °C 1037.7 hPa Calm   1.6 km/h 87% 0.0 mm 0.00 W/m2
04:20 -1.5 °C -3.4 °C 1037.7 hPa ESE 1.6 km/h 3.2 km/h 87% 0.0 mm 0.00 W/m2
04:25 -1.5 °C -3.4 °C 1037.6 hPa ESE 7.4 km/h 4.7 km/h 87% 0.0 mm 0.00 W/m2
04:30 -1.4 °C -3.2 °C 1037.7 hPa ESE 3.2 km/h 9.7 km/h 88% 0.0 mm 0.00 W/m2
04:35 -1.3 °C -3.1 °C 1037.6 hPa ESE 11.1 km/h 6.3 km/h 88% 0.0 mm 0.00 W/m2
04:40 -1.3 °C -3.2 °C 1037.7 hPa SE 11.3 km/h 6.6 km/h 87% 0.0 mm 0.00 W/m2
04:45 -1.2 °C -3.1 °C 1037.7 hPa ESE 9.7 km/h 12.9 km/h 87% 0.0 mm 0.00 W/m2
04:50 -1.2 °C -3.1 °C 1037.8 hPa ESE 4.8 km/h 12.9 km/h 87% 0.0 mm 0.00 W/m2
04:55 -1.2 °C -3.1 °C 1037.9 hPa ESE 9.3 km/h 5.0 km/h 87% 0.0 mm 0.00 W/m2
05:00 -1.2 °C -2.9 °C 1037.9 hPa ESE 4.8 km/h 11.3 km/h 88% 0.0 mm 0.00 W/m2
05:05 -1.1 °C -2.8 °C 1038.0 hPa ESE 11.3 km/h 6.4 km/h 88% 0.0 mm 0.00 W/m2
05:10 -1.1 °C -2.8 °C 1038.0 hPa SE 5.6 km/h 4.2 km/h 88% 0.0 mm 0.00 W/m2
05:15 -1.1 °C -2.8 °C 1038.1 hPa ESE 9.3 km/h 6.3 km/h 88% 0.0 mm 0.00 W/m2
05:20 -1.1 °C -2.8 °C 1038.1 hPa ESE 4.8 km/h 9.7 km/h 88% 0.0 mm 0.00 W/m2
05:25 -1.1 °C -2.8 °C 1038.2 hPa ESE 8.0 km/h 12.9 km/h 88% 0.0 mm 0.00 W/m2
05:30 -1.0 °C -2.7 °C 1038.3 hPa ESE 13.0 km/h 8.7 km/h 88% 0.0 mm 0.00 W/m2
05:35 -1.0 °C -2.7 °C 1038.3 hPa ESE 8.0 km/h 12.9 km/h 88% 0.0 mm 0.00 W/m2
05:40 -1.0 °C -2.7 °C 1038.6 hPa SE 14.8 km/h 8.7 km/h 88% 0.0 mm 0.00 W/m2
05:45 -1.1 °C -2.9 °C 1038.8 hPa ESE 13.0 km/h 8.7 km/h 87% 0.0 mm 0.00 W/m2
05:50 -1.1 °C -2.9 °C 1038.7 hPa SE 13.0 km/h 10.1 km/h 87% 0.0 mm 0.00 W/m2
05:55 -1.1 °C -2.9 °C 1038.8 hPa SE 7.4 km/h 4.8 km/h 87% 0.0 mm 0.00 W/m2
06:00 -1.1 °C -2.9 °C 1039.0 hPa SE 9.7 km/h 19.3 km/h 87% 0.0 mm 0.00 W/m2
06:05 -1.1 °C -3.2 °C 1039.1 hPa SE 24.1 km/h 9.2 km/h 86% 0.0 mm 0.00 W/m2
06:10 -1.2 °C -3.2 °C 1039.1 hPa SE 5.6 km/h 4.3 km/h 86% 0.0 mm 0.00 W/m2
06:15 -1.3 °C -3.3 °C 1039.1 hPa ESE 7.4 km/h 4.7 km/h 86% 0.0 mm 0.00 W/m2
06:20 -1.4 °C -3.4 °C 1039.2 hPa SE 3.2 km/h 12.9 km/h 86% 0.0 mm 0.00 W/m2
06:25 -1.4 °C -3.5 °C 1039.4 hPa SE 9.3 km/h 6.1 km/h 86% 0.0 mm 0.00 W/m2
06:30 -1.5 °C -3.6 °C 1039.3 hPa ESE 5.6 km/h 3.9 km/h 86% 0.0 mm 0.00 W/m2
06:35 -1.6 °C -3.7 °C 1039.4 hPa ESE 5.6 km/h 4.0 km/h 86% 0.0 mm 0.00 W/m2
06:40 -1.7 °C -3.7 °C 1039.5 hPa ESE 3.7 km/h 2.4 km/h 86% 0.0 mm 0.00 W/m2
06:45 -1.8 °C -3.8 °C 1039.6 hPa ESE 5.6 km/h 3.2 km/h 86% 0.0 mm 0.00 W/m2
06:50 -1.8 °C -3.7 °C 1039.8 hPa Calm     87% 0.0 mm 0.00 W/m2
06:55 -1.8 °C -3.7 °C 1039.8 hPa ESE 1.9 km/h 0.5 km/h 87% 0.0 mm 0.00 W/m2
07:00 -1.8 °C -3.7 °C 1040.0 hPa ESE 3.7 km/h 2.3 km/h 87% 0.0 mm 0.00 W/m2
07:05 -1.9 °C -3.8 °C 1040.1 hPa Calm   3.2 km/h 87% 0.0 mm 0.00 W/m2
07:10 -1.9 °C -3.8 °C 1040.2 hPa ESE 1.9 km/h 1.1 km/h 87% 0.0 mm 0.00 W/m2
07:15 -1.9 °C -4.0 °C 1040.3 hPa ESE 5.6 km/h 2.6 km/h 86% 0.0 mm 0.00 W/m2
07:20 -1.9 °C -4.0 °C 1040.5 hPa Calm     86% 0.0 mm 5.00 W/m2
07:25 -1.9 °C -4.1 °C 1040.6 hPa SE 8.0 km/h 4.5 km/h 85% 0.0 mm 5.00 W/m2
07:30 -2.0 °C -4.2 °C 1040.7 hPa SE 3.2 km/h 8.0 km/h 85% 0.0 mm 7.00 W/m2
07:35 -2.1 °C -4.4 °C 1040.7 hPa SE 5.6 km/h 2.9 km/h 84% 0.0 mm 9.00 W/m2
07:40 -2.1 °C -4.4 °C 1041.0 hPa SE 3.7 km/h 1.8 km/h 84% 0.0 mm 11.00 W/m2
07:45 -2.1 °C -4.4 °C 1041.2 hPa Calm     84% 0.0 mm 11.00 W/m2
07:50 -2.0 °C -4.3 °C 1041.2 hPa SE 3.7 km/h 1.3 km/h 84% 0.0 mm 14.00 W/m2
07:55 -1.9 °C -4.3 °C 1041.3 hPa SE 3.7 km/h 1.1 km/h 84% 0.0 mm 14.00 W/m2
08:00 -1.9 °C -4.4 °C 1041.4 hPa SE 1.9 km/h 1.1 km/h 83% 0.0 mm 16.00 W/m2
08:05 -1.8 °C -4.5 °C 1041.5 hPa East 5.6 km/h 2.7 km/h 82% 0.0 mm 18.00 W/m2
08:10 -1.7 °C -4.4 °C 1041.5 hPa ESE 5.6 km/h 3.4 km/h 82% 0.0 mm 23.00 W/m2
08:15 -1.6 °C -4.4 °C 1041.7 hPa SE 6.4 km/h 4.7 km/h 81% 0.0 mm 28.00 W/m2
08:20 -1.4 °C -4.4 °C 1041.7 hPa SE 5.6 km/h 1.9 km/h 80% 0.0 mm 32.00 W/m2
08:25 -1.3 °C -4.3 °C 1041.8 hPa SE 5.6 km/h 3.9 km/h 80% 0.0 mm 40.00 W/m2
08:30 -1.2 °C -4.2 °C 1041.9 hPa East 3.7 km/h 2.1 km/h 80% 0.0 mm 46.00 W/m2
08:35 -1.1 °C -4.2 °C 1042.0 hPa SE 5.6 km/h 2.6 km/h 79% 0.0 mm 46.00 W/m2
08:40 -0.9 °C -4.3 °C 1042.2 hPa SE 4.8 km/h 8.0 km/h 78% 0.0 mm 58.00 W/m2
08:45 -0.9 °C -4.2 °C 1042.3 hPa ESE 5.6 km/h 4.3 km/h 78% 0.0 mm 67.00 W/m2
08:50 -0.9 °C -4.4 °C 1042.2 hPa ESE 16.7 km/h 11.6 km/h 77% 0.0 mm 72.00 W/m2
08:55 -0.9 °C -4.4 °C 1042.4 hPa ESE 8.0 km/h 4.2 km/h 77% 0.0 mm 79.00 W/m2
09:00 -0.8 °C -4.2 °C 1042.5 hPa SE 3.7 km/h 2.1 km/h 78% 0.0 mm 83.00 W/m2
09:05 -0.7 °C -4.2 °C 1042.5 hPa SSE 13.0 km/h 7.7 km/h 77% 0.0 mm 88.00 W/m2
09:10 -0.7 °C -4.4 °C 1042.7 hPa SSE 8.0 km/h 6.0 km/h 76% 0.0 mm 97.00 W/m2
09:15 -0.8 °C -4.7 °C 1042.7 hPa SSE 8.0 km/h 19.3 km/h 75% 0.0 mm 100.00 W/m2
09:20 -0.8 °C -4.7 °C 1042.7 hPa SSE 13.0 km/h 9.7 km/h 75% 0.0 mm 104.00 W/m2
09:25 -0.7 °C -4.4 °C 1042.8 hPa SSE 4.8 km/h 11.3 km/h 76% 0.0 mm 109.00 W/m2
09:30 -0.6 °C -4.7 °C 1042.7 hPa SSE 11.1 km/h 7.7 km/h 74% 0.0 mm 128.00 W/m2
09:35 -0.4 °C -4.1 °C 1042.9 hPa SE 5.6 km/h 3.1 km/h 76% 0.0 mm 137.00 W/m2
09:40 -0.2 °C -4.1 °C 1043.1 hPa South 7.4 km/h 4.7 km/h 75% 0.0 mm 148.00 W/m2
09:45 -0.2 °C -4.3 °C 1043.3 hPa SE 13.0 km/h 8.4 km/h 74% 0.0 mm 158.00 W/m2
09:50 -0.4 °C -4.4 °C 1043.3 hPa SE 13.0 km/h 9.2 km/h 74% 0.0 mm 69.00 W/m2
09:55 -0.6 °C -4.6 °C 1043.3 hPa SE 16.7 km/h 9.2 km/h 74% 0.0 mm 118.00 W/m2
10:00 -0.6 °C -4.5 °C 1043.2 hPa SE 8.0 km/h 16.1 km/h 75% 0.0 mm 185.00 W/m2
10:05 -0.3 °C -4.4 °C 1043.3 hPa SSE 18.5 km/h 9.0 km/h 74% 0.0 mm 181.00 W/m2
10:10 -0.3 °C -4.6 °C 1043.3 hPa SSE 13.0 km/h 11.4 km/h 73% 0.0 mm 195.00 W/m2
10:15 -0.2 °C -4.5 °C 1043.3 hPa SE 9.7 km/h 6.1 km/h 73% 0.0 mm 163.00 W/m2
10:20 0.1 °C -4.1 °C 1043.4 hPa SSE 7.4 km/h 5.0 km/h 74% 0.0 mm 211.00 W/m2
10:25 0.1 °C -4.3 °C 1043.3 hPa SE 22.2 km/h 13.4 km/h 72% 0.0 mm 218.00 W/m2
10:30 0.2 °C -4.3 °C 1043.3 hPa SE 18.5 km/h 8.7 km/h 72% 0.0 mm 232.00 W/m2
10:35 0.2 °C -4.2 °C 1043.3 hPa SSE 11.1 km/h 7.2 km/h 72% 0.0 mm 237.00 W/m2
10:40 0.3 °C -4.1 °C 1043.5 hPa SSE 17.7 km/h 10.6 km/h 72% 0.0 mm 239.00 W/m2
10:45 0.2 °C -4.6 °C 1043.5 hPa South 24.1 km/h 14.6 km/h 70% 0.0 mm 243.00 W/m2
10:50 0.3 °C -4.3 °C 1043.6 hPa SSE 16.7 km/h 6.9 km/h 71% 0.0 mm 244.00 W/m2
10:55 0.3 °C -4.6 °C 1043.5 hPa SE 11.1 km/h 8.5 km/h 70% 0.0 mm 276.00 W/m2
11:00 0.4 °C -4.1 °C 1043.5 hPa SSE 4.8 km/h 16.1 km/h 72% 0.0 mm 318.00 W/m2
11:05 0.7 °C -3.9 °C 1043.5 hPa SSE 9.3 km/h 6.8 km/h 71% 0.0 mm 352.00 W/m2
11:10 0.9 °C -3.9 °C 1043.5 hPa South 9.7 km/h 19.3 km/h 70% 0.0 mm 306.00 W/m2
11:15 0.8 °C -4.4 °C 1043.6 hPa SSE 16.7 km/h 11.1 km/h 68% 0.0 mm 216.00 W/m2
11:20 0.7 °C -4.4 °C 1043.7 hPa South 13.0 km/h 7.6 km/h 69% 0.0 mm 281.00 W/m2
11:25 0.6 °C -4.4 °C 1043.7 hPa ESE 13.0 km/h 7.6 km/h 69% 0.0 mm 264.00 W/m2
11:30 0.5 °C -4.6 °C 1043.6 hPa SE 13.0 km/h 8.5 km/h 69% 0.0 mm 169.00 W/m2
11:35 0.4 °C -4.4 °C 1043.6 hPa ESE 14.8 km/h 9.8 km/h 70% 0.0 mm 162.00 W/m2
11:40 0.4 °C -4.6 °C 1043.5 hPa SSE 9.3 km/h 6.9 km/h 69% 0.0 mm 163.00 W/m2
11:45 0.5 °C -4.7 °C 1043.5 hPa SSE 16.7 km/h 9.3 km/h 68% 0.0 mm 163.00 W/m2
11:50 0.4 °C -4.6 °C 1043.6 hPa SSE 5.6 km/h 4.8 km/h 69% 0.0 mm 142.00 W/m2
11:55 0.5 °C -4.7 °C 1043.7 hPa SE 14.8 km/h 11.1 km/h 68% 0.0 mm 132.00 W/m2
Rianhome, Gråbo, Sweden
Compliments of Weather Underground - 2 mb